Voltar ao catálogo

STARLINK-5233

AtivoComunicaçõesVLEO
NORAD 54160·PAYLOAD·🇺🇸 United States

Lançado Oct 28, 2022 de Vandenberg Space Force Base

Loading…

Próximas Passagens (próximas 24 horas)

TLE

AtualizadoSource: CelesTrak SupGP

Época: Sep 14, 2026, 21:13 UTC

1 54160C 22141D   26257.88451389 -.00030577  00000+0 -98314-3 0  2572
2 54160  53.1593 188.9844 0001494  91.2040 344.4876 15.31721558    15

Acompanhe STARLINK-5233 em tempo real com AllMySat

Download on the App Store